This demonstration page uses our WeatherBlox Daily Observations layout. Learn more.

Left ArrowRight Arrow

Hourly Observations for June 18, 2019

Temp ( °F °C ) Dew Point ( °F °C ) Humidity (%) Winds ( mph kmh ) Pressure ( in mb ) Visibility ( mi km ) Precip ( " mm )
12:53 am 00:53 Mostly Cloudy 62 16.7 46 7.8 56 56 ENE 7 11 29.91 1013 10 16 0.00 0.00
1:53 am 01:53 Cloudy 61 16.1 48 8.9 63 63 NE 10 17 29.91 1013 10 16 0.00 0.03
2:53 am 02:53 Cloudy 58 14.4 49 9.4 72 72 ENE 9 15 29.91 1013 10 16 0.00 0.03
3:53 am 03:53 Mostly Cloudy 56 13.3 49 9.4 77 77 ENE 10 17 29.89 1012 10 16 0.00 0.00
4:53 am 04:53 Mostly Clear 58 14.4 48 8.9 70 70 E 13 20 29.88 1012 10 16 0.00 0.00
5:53 am 05:53 Cloudy 60 15.6 49 9.4 67 67 E 10 17 29.87 1011 10 16 0.00 0.00
6:53 am 06:53 Sunny 63 17.2 49 9.4 60 60 ESE 8 13 29.86 1011 10 16 0.00 0.00
7:53 am 07:53 Sunny 59 15 51 10.6 75 75 WSW 5 7 29.88 1012 10 16 0.00 0.00
8:53 am 08:53 Sunny 65 18.3 51 10.6 61 61 SW 5 7 29.86 1011 10 16 0.00 0.00
9:53 am 09:53 Sunny 73 22.8 49 9.4 43 43 SW 16 26 29.84 1011 10 16 0.00 0.00
10:53 am 10:53 Sunny 75 23.9 49 9.4 40 40 SW 13 20 29.83 1010 10 16 0.00 0.00
11:53 am 11:53 Mostly Cloudy 77 25 47 8.3 35 35 WSW 13 20 29.81 1009 10 16 0.00 0.00
12:42 pm 12:42 Cloudy with Thunderstorms 64 18 55 13 73 73 WNW 20 31 29.80 1009 10 16 0.00 0.00
12:53 pm 12:53 Cloudy with Thunderstorms 62 16.7 56 13.3 80 80 NW 14 22 29.86 1011 10 16 0.00 0.03
1:09 pm 13:09 Cloudy with Light Rain 62 16.7 56 13.3 80 80 W 8 13 29.81 1010 10 16 0.00 0.03
1:53 pm 13:53 Partly Cloudy 66 18.9 55 12.8 68 68 W 5 7 29.83 1010 10 16 0.02 0.51
2:53 pm 14:53 Sunny 73 22.8 55 12.8 53 53 SSW 10 17 29.80 1009 10 16 0.00 0.00
3:53 pm 15:53 Sunny 77 25 51 10.6 40 40 WSW 13 20 29.78 1009 10 16 0.00 0.00
4:53 pm 16:53 Mostly Cloudy 75 23.9 53 11.7 46 46 SW 17 28 29.77 1008 10 16 0.00 0.00
5:53 pm 17:53 Sunny 75 23.9 53 11.7 46 46 SW 15 24 29.76 1008 10 16 0.00 0.00
6:41 pm 18:41 Mostly Cloudy with Nearby Thunderstorms 74 23.3 54 12.2 50 50 Calm 29.67 1005 10 16 0.00 0.00
6:53 pm 18:53 Mostly Cloudy 76 24.4 51 10.6 42 42 undefined N/A 29.76 1008 10 16 0.00 0.00
7:53 pm 19:53 Sunny 66 18.9 51 10.6 59 59 E 15 24 29.79 1009 10 16 0.00 0.00
8:53 pm 20:53 Sunny 65 18.3 49 9.4 56 56 E 10 17 29.79 1009 10 16 0.00 0.00
9:53 pm 21:53 Clear 62 16.7 51 10.6 67 67 VRB 3 6 29.77 1008 10 16 0.00 0.00
10:53 pm 22:53 Mostly Cloudy 62 16.7 54 12.2 75 75 SW 10 17 29.78 1008 10 16 0.00 0.00
11:53 pm 23:53 Clear 59 15 53 11.7 81 81 W 3 6 29.76 1008 10 16 0.00 0.00

Powered by AerisWeather